Location: Goettingen
(51.5300°N, 9.9433°E)
Time: 15:26:30
(UTC+02:00)

ICEYE-X32 - Visible Passes

Search period start: 12 July 2024 00:00
Search period end: 22 July 2024 00:00
Orbit: 485 x 500 km, 97.5° (Epoch: 12 July)

Date Brightness Start Highest point End Pass type
(mag) Time Alt. Az. Time Alt. Az. Time Alt. Az.
12 Jul ? 23:17:54 16° S 23:20:42 82° WSW 23:24:22 10° NNW visible
13 Jul ? 22:55:47 14° SSE 22:58:47 56° ENE 23:02:22 10° N visible
14 Jul ? 00:30:42 10° WSW 00:32:44 14° W 00:34:46 10° NW visible
14 Jul ? 22:33:37 10° SE 22:36:53 33° ENE 22:40:11 10° N visible
15 Jul ? 00:08:08 13° SW 00:10:33 23° W 00:13:32 10° NW visible
15 Jul ? 22:12:16 10° ESE 22:15:01 21° ENE 22:17:46 10° NNE visible
15 Jul ? 23:45:56 17° SSW 23:48:24 39° W 23:51:51 10° NNW visible
16 Jul ? 23:23:41 18° S 23:26:16 71° WSW 23:29:54 10° NNW visible
17 Jul ? 23:01:24 16° SSE 23:04:09 65° ENE 23:07:45 10° N visible
18 Jul ? 00:36:32 10° WSW 00:38:10 13° W 00:39:47 10° WNW visible
18 Jul ? 22:39:04 12° SE 22:42:04 37° ENE 22:45:26 10° N visible
19 Jul ? 00:13:34 13° SW 00:15:47 21° W 00:18:36 10° NW visible
19 Jul ? 22:17:08 10° ESE 22:20:00 23° ENE 22:22:53 10° NNE visible
19 Jul ? 23:51:12 18° SSW 23:53:27 35° W 23:56:48 10° NNW visible
20 Jul ? 23:28:47 20° S 23:31:07 62° W 23:34:44 10° NNW visible
21 Jul ? 23:06:19 19° SSE 23:08:50 73° ENE 23:12:27 10° N visible
